Wind_Speed
12 12 12 13 13 13 13 13 13 13 13 13 12 12 12 11 11 12 13 13 13 12 12 12 9 6 6 6 6 8 9 9 9 9 9 10 10 9 9 9 9 8 5 2 4 5 5 7 9 8 6 3 3 2 4 3 1 1 2 3 4 5 5 1 3 2 1 2 1 3 4 3 3 3 2 2 3 4 4 5 4 5 4 6 9 14 23 26
12 12 13 13 14 14 14 14 14 13 13 13 13 13 12 12 11 11 11 12 13 13 12 12 10 7 6 6 6 7 7 8 11 13 16 16 13 12 12 11 10 8 5 3 6 8 6 6 8 9 4 2 4 3 3 2 2 3 3 3 5 4 3 1 3 3 3 4 3 1 5 4 3 5 4 1 5 6 7 7 5 7 5 8 11 17 23 24
12 12 13 14 14 15 15 15 15 15 15 14 14 14 13 13 12 12 11 11 12 12 12 12 11 9 6 6 6 5 5 7 10 11 16 19 17 15 13 11 9 8 6 5 5 7 7 7 5 6 5 3 4 4 3 2 2 4 3 3 6 3 4 4 3 3 3 4 5 4 3 4 5 3 4 3 5 7 9 9 7 10 10 9 10 17 22 22
12 12 13 14 14 15 15 16 16 16 16 16 15 15 14 14 13 13 13 12 12 12 12 12 12 10 7 6 5 4 4 5 5 4 10 17 18 17 13 10 9 8 7 5 5 7 8 9 8 5 4 4 4 4 3 3 3 3 4 4 6 1 2 3 4 4 4 4 4 6 2 3 5 2 4 4 4 7 9 10 11 12 13 11 11 15 20 20
12 13 13 14 15 15 16 16 16 17 17 17 17 16 16 15 15 14 14 14 13 12 12 11 11 10 7 5 4 2 3 3 1 0 4 11 15 16 13 11 9 8 7 5 5 6 8 8 6 4 3 4 4 4 4 6 4 2 5 7 9 6 3 1 4 3 3 2 2 5 5 4 4 4 6 6 7 8 5 6 10 13 12 11 14 15 17 16
13 13 14 15 15 16 16 17 17 17 17 17 17 17 17 16 16 15 14 15 14 14 13 12 11 9 6 3 2 1 2 2 0 1 2 5 12 14 12 10 8 7 7 5 5 5 6 6 5 3 3 4 6 6 6 7 5 3 6 7 10 8 5 2 3 2 2 1 4 4 4 3 4 6 6 9 13 11 4 1 2 4 7 9 16 17 15 15
14 14 15 15 16 16 17 17 18 18 18 18 17 17 17 16 16 16 15 15 15 15 14 12 11 8 4 1 1 1 3 5 3 2 2 4 10 12 11 9 7 7 6 6 7 6 5 5 5 4 4 5 6 8 5 5 5 4 6 7 9 7 5 4 3 4 3 4 5 1 3 3 7 7 5 11 16 14 10 5 2 2 1 4 13 16 16 17
15 15 16 16 17 17 18 18 18 19 19 19 19 18 17 17 16 16 15 15 15 15 14 12 9 6 3 1 0 3 5 5 5 4 3 5 9 11 10 8 7 8 7 8 9 6 5 5 7 5 5 6 4 4 0 4 5 6 7 8 7 3 4 5 4 6 5 5 5 2 3 7 9 6 7 16 15 11 11 9 6 5 3 6 11 14 14 14
17 17 17 17 18 18 18 19 19 19 20 20 20 19 18 18 17 16 15 15 15 15 13 10 8 5 3 2 2 4 3 4 5 5 4 6 9 9 9 7 7 8 7 9 9 8 4 3 5 2 3 4 5 6 1 2 3 4 6 7 6 5 6 6 6 7 6 5 4 5 8 9 8 4 11 19 16 12 10 10 9 7 7 7 9 12 12 13
19 19 19 19 19 19 19 19 19 19 20 20 20 20 19 18 18 17 16 15 14 14 12 9 7 4 5 3 3 4 3 3 4 4 4 6 7 8 8 7 7 8 7 8 9 8 4 2 3 2 3 4 5 6 3 3 1 1 4 6 8 10 8 6 7 7 7 5 6 7 9 9 4 2 10 14 10 11 12 12 11 8 9 10 9 10 11 13
19 20 20 20 21 21 21 21 20 20 20 20 20 20 19 19 18 18 16 15 14 13 9 7 5 5 4 3 4 4 4 4 3 3 3 5 6 7 8 9 8 8 8 8 9 8 5 3 3 1 0 1 4 5 3 1 3 3 4 6 9 11 11 10 10 9 6 5 8 8 7 8 3 4 15 14 2 5 10 12 12 11 10 10 10 10 9 10
19 19 20 21 22 22 22 23 22 21 21 21 21 20 18 18 18 18 17 15 14 11 7 6 4 6 4 4 6 8 7 6 5 4 5 5 7 8 8 9 9 10 8 7 7 8 7 3 1 3 3 1 4 4 2 2 3 4 3 5 11 11 12 13 13 10 7 5 7 6 4 9 9 11 21 18 6 4 7 9 11 11 11 9 10 9 8 10
17 18 19 20 22 22 23 24 24 23 22 22 22 21 19 18 18 17 16 16 13 9 7 5 6 7 4 3 7 13 13 10 7 6 6 6 5 7 8 8 9 10 10 7 4 5 7 4 3 5 4 3 4 2 1 1 1 4 3 4 8 8 9 13 13 11 9 5 8 7 3 8 11 17 22 17 9 9 8 9 9 9 9 8 9 9 9 10
17 17 18 19 21 22 24 25 25 25 24 23 23 22 19 18 17 16 15 15 12 8 6 4 6 6 3 4 8 12 13 11 9 6 7 6 4 4 5 6 6 8 8 7 5 4 6 5 3 4 2 2 3 2 3 3 2 3 5 5 5 4 6 8 7 11 9 4 9 7 4 9 10 13 19 16 9 11 11 10 9 9 8 8 9 10 10 11
17 18 18 19 21 22 24 25 26 25 25 25 24 23 20 17 17 15 14 14 10 7 4 4 7 5 2 6 7 8 10 9 7 8 8 7 6 4 5 6 4 5 5 5 5 4 5 4 2 2 1 1 1 2 4 4 4 3 3 4 5 4 7 7 2 13 12 3 8 7 3 10 13 9 9 9 10 12 11 10 9 10 10 10 9 10 10 10
17 18 18 19 21 23 25 26 26 26 25 26 26 24 20 17 16 15 14 11 6 4 4 4 8 7 4 4 4 4 6 6 6 9 9 9 9 5 5 7 4 4 4 3 4 4 4 3 1 1 1 1 1 3 3 4 5 4 5 5 6 5 7 6 1 8 10 5 7 10 5 6 9 5 1 1 8 10 9 9 9 11 11 11 10 9 10 10
17 18 19 19 22 24 25 26 26 25 25 26 26 24 19 15 15 13 10 7 5 6 7 3 4 6 3 3 4 3 4 6 8 10 10 11 10 5 7 6 4 6 3 3 3 3 4 3 1 0 2 4 4 4 3 4 6 4 5 6 7 8 8 5 1 4 7 6 8 11 10 10 9 6 1 1 6 8 9 9 10 10 10 11 9 9 10 10
17 18 18 20 22 24 25 26 26 25 25 26 25 22 17 13 11 9 6 5 3 4 5 4 3 3 3 5 5 2 5 7 9 9 10 12 11 7 6 4 3 6 4 3 3 4 4 3 3 1 3 4 4 5 5 7 8 5 6 5 6 7 8 7 4 3 9 7 7 9 10 15 15 12 9 7 7 8 10 10 12 12 12 13 10 10 10 11
17 17 18 20 22 24 26 26 24 24 25 26 23 18 12 8 6 6 6 6 4 3 4 4 6 4 2 4 5 4 5 7 8 8 9 11 11 8 6 4 2 5 4 2 4 6 4 2 3 3 6 7 8 9 10 12 11 9 10 7 7 7 7 11 8 4 11 7 8 11 11 14 15 14 13 12 10 11 12 11 12 12 13 13 11 10 11 12
16 16 17 20 22 24 25 25 23 22 23 23 21 15 7 4 3 3 4 6 8 8 7 4 10 8 5 3 6 6 5 6 5 6 10 11 10 7 4 4 3 4 5 4 4 4 4 4 4 7 11 10 10 13 14 14 13 12 11 9 9 8 8 13 10 5 9 6 8 13 13 14 15 14 13 12 11 11 12 13 13 12 13 13 12 12 12 13
15 16 18 20 22 23 24 24 21 19 19 17 15 10 3 3 3 2 1 6 12 14 13 9 11 11 7 4 9 9 4 3 5 6 12 13 10 7 5 6 4 4 6 7 4 0 1 6 9 14 16 11 10 12 12 12 12 12 10 8 8 7 9 14 8 3 6 5 6 9 11 13 14 13 12 11 12 13 13 14 15 16 16 13 12 13 13 10
14 15 18 20 20 22 24 23 19 16 14 11 9 5 2 4 2 1 2 6 10 15 15 13 13 11 8 6 10 10 3 3 7 6 13 12 9 7 5 7 7 6 6 6 5 2 3 9 13 16 13 10 11 11 9 10 10 9 6 5 7 7 9 11 5 2 3 3 5 8 9 11 12 14 14 13 14 14 15 16 16 16 16 14 13 13 11 8
14 14 16 18 19 22 22 22 17 10 9 8 6 4 4 5 2 1 2 5 8 12 12 12 14 11 10 10 9 10 5 8 9 8 17 15 8 6 6 8 9 8 6 8 9 7 6 9 13 16 13 12 13 10 8 8 7 7 6 6 8 8 8 7 3 3 4 5 5 6 8 9 11 14 15 17 18 16 16 18 17 15 15 16 16 12 9 9
14 14 14 16 18 20 21 22 13 7 8 8 4 4 6 5 2 2 2 5 7 9 12 15 13 10 13 10 9 13 9 9 7 7 20 19 7 4 6 8 9 8 8 11 13 13 13 8 6 9 11 12 12 10 7 7 7 8 7 8 9 11 11 9 5 3 4 6 4 4 8 8 10 14 15 13 14 14 14 16 15 14 14 15 15 12 8 9
14 13 13 14 15 18 21 17 7 8 13 7 2 6 7 4 1 3 2 4 7 4 6 10 6 7 13 9 11 12 4 7 6 5 18 19 9 6 5 6 7 9 11 13 14 14 14 8 6 6 6 7 8 7 7 6 8 8 7 12 15 14 12 11 8 3 3 5 3 1 6 7 7 11 12 7 7 9 10 12 14 14 14 14 12 10 8 8
15 14 12 12 13 18 18 8 6 14 12 3 4 9 8 4 2 2 2 3 8 1 2 5 5 6 9 7 9 6 3 5 2 4 15 14 7 5 4 4 4 9 9 9 9 8 6 4 6 8 7 7 7 7 7 7 7 8 4 7 11 11 10 9 7 3 2 5 2 4 2 7 6 8 10 6 6 9 9 10 12 13 13 12 10 8 8 8
16 14 13 12 12 15 11 5 11 15 6 2 9 11 9 5 4 3 1 4 8 3 4 2 1 3 5 3 6 7 0 2 3 4 7 5 4 3 5 7 5 6 4 1 5 4 4 5 5 6 7 7 7 8 7 8 7 6 1 0 1 3 6 4 3 4 3 5 4 4 4 7 12 8 8 9 8 9 9 9 11 13 13 13 12 8 9 10
16 15 14 12 12 11 8 9 12 9 4 9 13 12 9 5 4 3 0 4 5 4 4 2 1 1 2 2 2 5 1 0 3 0 2 1 2 2 7 11 8 7 6 5 8 3 3 6 7 8 7 6 7 6 4 8 7 4 1 2 3 2 1 1 2 4 3 5 5 5 7 5 13 7 7 9 10 10 11 11 13 14 13 14 14 9 8 10
17 17 16 14 13 13 11 11 9 7 9 12 13 11 8 4 3 1 1 6 1 4 1 2 1 0 2 2 4 3 1 2 1 1 2 1 2 0 5 7 7 8 6 8 11 5 1 4 4 5 6 7 5 1 1 3 5 4 2 3 5 3 1 2 2 2 2 5 7 6 8 5 13 10 5 7 8 10 10 11 13 13 13 13 12 8 8 8
19 19 16 14 13 11 10 10 10 10 10 10 10 9 6 3 1 1 6 6 1 2 1 1 1 3 6 3 4 5 3 0 2 1 1 2 2 0 2 2 3 6 5 5 8 6 2 3 0 2 4 4 3 4 3 1 2 2 2 2 2 1 0 1 2 2 1 9 9 9 13 9 9 7 5 8 9 11 10 9 10 11 12 12 9 7 8 8
21 20 17 16 15 10 5 6 8 7 8 8 8 6 3 2 0 4 9 3 2 1 3 2 2 6 9 8 4 4 5 2 3 5 3 1 3 2 2 1 1 1 4 5 7 7 3 2 1 1 1 4 5 3 1 2 1 2 3 2 1 2 2 2 1 3 2 10 6 10 16 14 10 5 2 5 9 12 11 10 11 12 13 12 10 9 8 8
23 22 21 20 19 15 8 5 5 4 8 9 6 2 1 1 3 9 6 2 0 4 4 4 5 6 8 8 4 4 5 3 4 6 4 4 4 5 5 5 4 2 3 5 5 5 6 8 7 1 2 4 5 1 1 2 1 2 4 4 1 3 2 1 2 2 5 10 4 10 13 11 14 9 2 4 6 10 11 10 12 14 12 10 10 10 7 8
27 24 24 23 22 20 16 12 10 9 9 7 4 1 1 2 7 9 6 3 2 2 2 2 6 7 6 5 4 4 4 3 6 6 5 5 5 6 7 7 5 3 4 4 3 3 3 6 6 4 3 5 9 6 4 2 4 7 6 6 5 3 3 4 4 3 6 9 5 6 8 6 9 6 9 11 9 10 11 11 11 11 10 10 9 8 7 8
30 28 27 27 25 23 19 17 15 11 5 3 1 1 2 7 8 2 5 8 5 1 1 2 5 7 6 5 4 6 4 4 7 7 5 5 4 5 6 9 11 7 3 2 3 3 3 7 6 10 3 8 14 13 11 4 5 9 6 5 5 4 3 4 5 6 6 6 4 3 4 4 2 3 12 17 14 12 11 11 11 9 9 8 5 7 7 7
29 31 30 27 25 23 21 19 15 9 2 2 1 3 6 10 7 2 2 5 5 5 2 2 3 6 6 5 3 5 5 4 6 7 5 6 6 5 6 8 13 10 3 3 3 3 5 9 7 8 2 10 13 11 9 5 1 5 5 4 5 4 5 5 6 7 3 4 6 4 4 6 3 5 9 12 13 14 12 12 11 8 9 7 5 7 6 7
23 27 24 23 24 25 25 23 17 10 6 4 3 6 9 9 4 1 3 2 4 5 2 1 2 4 5 3 3 5 5 3 5 6 4 7 8 7 6 5 12 14 9 6 3 3 5 7 2 4 3 4 5 3 3 3 1 3 4 5 5 3 5 5 6 6 2 5 9 6 6 8 6 10 12 11 12 11 11 12 11 9 12 10 6 7 7 7
14 15 14 19 25 27 28 27 20 14 7 3 5 8 8 8 6 5 4 5 7 5 1 3 3 4 5 4 4 7 5 2 5 5 3 4 6 8 9 6 11 17 16 11 4 3 6 6 2 2 1 1 2 3 2 1 2 5 3 5 2 3 1 3 2 3 3 7 9 8 10 10 8 8 6 11 14 13 12 13 12 13 15 11 7 8 8 8
8 7 9 20 29 28 29 29 22 15 6 3 7 9 7 6 8 8 7 8 10 8 4 5 4 5 6 6 5 6 7 5 5 5 4 4 5 8 11 7 9 16 19 15 7 4 5 6 5 1 0 2 1 1 1 3 3 5 3 2 2 1 1 3 3 2 5 7 8 11 14 13 12 11 5 6 14 15 14 14 14 16 15 10 8 9 9 8
4 4 5 15 26 28 30 29 21 11 4 4 8 8 5 7 10 10 10 10 10 8 6 6 4 4 7 8 7 3 7 8 6 5 5 5 5 7 10 7 7 13 18 16 9 5 3 5 5 1 2 2 2 1 3 1 1 1 2 4 1 2 3 4 4 3 5 7 8 12 16 12 9 9 8 9 13 14 14 13 14 15 14 10 8 9 8 7
3 2 2 8 22 29 30 26 14 6 3 4 6 8 6 6 7 8 9 6 4 3 3 5 6 5 6 7 10 7 5 8 7 5 5 5 5 5 7 8 7 9 13 14 11 6 2 4 6 1 4 2 2 4 8 8 6 4 1 3 3 2 1 1 3 3 5 6 5 7 13 11 3 1 6 9 10 11 11 11 11 12 13 11 9 8 7 7
4 4 1 15 27 32 27 15 5 4 3 3 6 9 10 6 4 8 8 3 3 3 3 4 6 6 7 6 9 9 5 5 5 5 4 5 6 4 3 6 6 4 4 6 7 5 3 4 6 2 0 5 7 7 11 13 11 8 8 9 9 7 4 3 6 6 4 4 6 5 12 15 3 5 4 7 9 10 11 11 10 11 12 10 7 8 8 7
5 4 4 22 35 34 21 5 3 5 3 5 6 6 7 6 7 11 11 6 5 4 3 6 11 11 10 9 11 11 8 8 9 7 6 4 5 3 2 2 3 2 3 2 5 4 2 2 4 6 5 8 10 5 5 6 4 3 5 7 8 7 7 7 9 7 4 4 6 6 12 16 4 7 4 3 7 9 11 12 10 9 10 7 6 8 8 8
5 3 7 27 41 32 13 5 5 5 4 4 4 5 6 6 6 8 9 9 7 5 4 6 10 12 12 11 12 13 12 10 11 13 12 10 8 7 7 8 6 2 1 2 2 2 2 2 4 7 5 5 7 4 4 4 2 3 4 3 6 7 9 10 7 4 4 6 7 8 12 15 5 6 4 3 3 2 4 7 8 7 6 6 7 9 8 9
3 3 3 24 41 29 8 5 6 7 8 6 6 8 8 7 8 10 10 9 7 5 6 8 9 11 10 10 10 11 12 10 10 14 14 12 11 11 11 10 6 3 2 1 0 0 1 2 4 6 6 4 6 6 5 4 2 3 5 5 7 8 9 9 4 2 5 9 13 13 12 12 7 4 6 6 5 3 4 5 7 7 7 7 8 8 8 9
3 3 1 14 29 21 7 7 9 8 10 12 12 12 11 8 9 15 17 13 11 8 7 7 6 7 7 7 9 11 12 10 8 7 7 8 9 11 14 13 9 6 3 4 3 2 2 3 4 6 8 7 8 9 6 2 0 1 4 7 9 10 10 9 6 6 8 11 16 15 11 13 13 7 6 7 7 8 9 8 7 7 8 8 7 7 8 9
2 3 1 5 12 10 6 8 10 10 11 12 10 10 15 13 10 15 19 15 13 14 12 6 3 4 7 9 11 12 14 14 10 6 5 7 7 6 9 11 11 10 4 6 3 1 2 3 6 10 12 10 11 12 8 4 3 3 6 9 10 10 11 10 7 8 10 12 14 13 13 18 20 19 19 18 16 15 15 12 8 8 9 7 7 8 10 9
3 4 3 2 3 6 6 7 9 9 10 12 8 7 16 19 13 11 13 12 13 15 13 8 7 8 10 12 13 13 14 14 12 11 12 12 11 8 6 6 6 5 5 4 1 3 3 3 8 12 15 15 15 17 16 15 15 14 12 11 11 11 12 11 10 13 13 13 13 13 15 20 20 21 26 28 23 18 17 17 13 10 10 10 8 9 11 10
4 3 3 1 1 4 6 7 10 10 11 11 8 8 14 18 15 12 10 11 13 12 8 8 13 18 18 16 14 12 12 12 11 13 15 14 15 13 8 8 8 7 7 4 2 4 3 6 9 12 16 16 15 17 18 19 20 20 18 18 16 14 12 12 15 19 18 16 15 14 19 24 22 20 25 28 24 17 14 16 15 13 14 14 10 9 10 10
4 3 3 4 3 3 3 5 7 9 12 11 8 9 13 15 16 15 11 9 10 11 11 12 15 20 23 22 16 12 11 11 12 13 14 15 15 12 8 9 8 6 7 5 2 3 3 6 10 14 16 16 17 18 18 18 19 20 20 20 20 19 17 16 20 22 22 21 21 22 26 27 22 21 24 25 22 18 15 17 19 19 22 20 13 11 13 11
3 2 3 4 4 5 6 6 4 5 8 8 7 8 12 15 17 15 11 11 11 9 13 18 20 19 21 21 19 16 16 16 18 18 16 14 12 9 7 8 6 3 5 6 4 3 5 7 10 12 12 15 20 22 22 21 21 22 23 21 20 20 22 24 24 22 19 20 22 24 24 22 20 23 25 23 21 21 22 24 24 22 24 22 16 13 13 12
6 6 5 4 5 5 6 6 5 5 5 6 6 7 10 14 16 14 12 13 16 13 11 18 22 19 17 19 20 20 21 22 24 25 21 16 12 10 7 7 9 6 4 6 4 4 6 6 7 8 9 12 17 22 24 24 22 23 23 22 23 24 23 23 23 20 19 19 21 21 17 16 19 21 21 20 21 23 25 27 24 21 22 21 15 12 11 11
7 7 5 4 4 5 6 6 6 7 6 6 7 8 9 11 11 12 11 8 12 15 13 15 17 14 13 18 20 20 20 22 24 24 21 18 17 14 7 5 10 9 6 6 4 4 7 6 5 8 8 9 15 20 21 18 15 15 17 24 30 29 25 23 22 24 24 21 18 16 16 17 18 17 18 21 24 24 23 22 21 20 21 19 14 9 9 11
Wind_Direction
8 7 7 7 5 7 8 10 10 10 11 11 12 12 11 11 6 1 357 353 351 351 349 351 349 331 323 322 304 284 275 272 275 263 239 247 250 246 253 250 258 255 243 236 161 186 195 198 216 205 195 166 199 221 144 173 192 174 198 214 241 242 244 274 335 8 15 328 88 175 184 225 229 158 145 118 234 244 206 219 200 209 203 122 124 135 142 150
357 356 357 357 357 358 359 0 1 1 2 3 4 4 5 7 4 359 354 350 345 345 344 345 348 338 324 324 317 297 282 266 263 256 245 250 250 246 255 254 250 242 231 204 186 210 219 219 204 185 191 191 189 174 143 168 165 207 235 237 242 260 263 256 354 8 10 329 327 191 180 231 234 156 139 172 216 214 224 231 202 219 203 131 137 145 147 153
348 347 348 348 349 350 350 352 352 353 353 354 356 356 357 359 360 357 352 349 343 341 339 337 340 338 326 325 324 301 290 275 265 255 242 239 234 235 242 243 236 231 223 202 208 236 260 285 262 194 197 234 204 168 176 178 160 216 224 256 252 282 318 316 7 22 23 3 317 291 177 204 245 151 122 214 237 219 222 223 200 220 218 175 159 154 154 160
342 342 342 342 342 342 343 344 346 347 346 346 348 348 350 352 354 353 350 347 342 338 335 332 332 333 327 325 325 297 298 289 265 234 225 223 219 219 221 227 225 223 219 209 241 263 276 288 280 238 212 244 225 182 185 176 167 216 191 234 261 275 325 331 37 41 45 43 315 297 283 221 246 193 154 202 246 245 231 218 206 216 222 192 166 164 165 167
337 337 337 337 336 337 338 339 341 342 342 341 341 342 343 345 347 349 348 345 342 337 333 328 324 323 322 318 312 299 311 285 255 30 229 215 210 209 206 211 212 217 214 208 247 260 265 263 256 241 222 255 242 196 210 198 178 259 231 243 263 267 281 348 71 53 57 67 290 281 270 245 232 208 196 204 227 241 224 211 217 215 220 195 168 171 171 173
332 333 333 332 331 333 332 334 336 336 337 336 336 337 338 340 341 343 345 344 342 338 332 326 320 314 312 318 313 296 289 276 250 17 276 211 207 203 197 202 204 211 205 207 245 250 254 250 233 226 228 249 247 236 230 192 167 241 252 250 263 266 270 262 108 94 85 196 234 250 282 274 239 239 218 215 230 238 225 169 205 206 231 201 168 168 175 182
329 329 329 328 328 328 329 330 332 332 332 332 333 333 333 335 336 338 342 342 341 339 333 324 317 304 293 333 57 230 246 273 276 243 251 201 200 196 195 200 201 200 190 207 231 233 239 240 232 230 239 245 250 252 235 151 157 228 261 267 278 282 268 266 127 147 181 228 241 273 347 283 238 244 233 232 236 240 247 245 165 128 1 150 159 171 182 188
326 326 326 326 325 325 326 326 328 329 329 329 329 330 331 331 331 334 337 339 340 339 334 322 313 297 267 147 201 257 240 255 254 225 216 204 197 193 196 200 200 191 189 215 228 248 261 250 249 248 250 253 288 302 94 128 190 222 249 258 268 273 257 254 165 172 201 226 244 260 273 250 240 260 266 252 247 239 239 240 211 181 156 134 159 181 187 192
326 325 325 324 323 324 323 324 325 325 325 325 326 328 329 329 328 330 333 336 338 339 337 321 305 278 225 184 259 275 249 234 227 221 221 212 204 200 198 196 199 190 197 226 235 260 271 265 269 289 308 285 306 316 319 178 220 219 254 275 286 286 274 253 209 196 210 217 207 228 248 247 242 266 268 254 248 245 236 234 224 195 196 185 175 186 190 196
327 326 326 325 324 323 323 322 321 322 322 321 322 325 327 328 327 327 329 332 335 339 335 319 299 254 208 202 248 257 251 240 225 231 241 224 212 207 200 193 195 195 215 229 225 242 251 306 310 32 7 310 294 292 236 205 251 302 297 309 300 290 285 265 245 221 211 213 192 210 245 251 223 167 257 254 238 236 230 232 228 200 210 211 198 195 194 200
328 327 326 326 326 325 324 322 321 322 320 318 319 321 325 327 326 325 326 328 332 336 330 313 283 233 209 216 241 243 240 238 230 229 233 223 208 203 204 203 201 201 225 236 221 231 258 310 335 42 26 317 315 288 216 201 336 328 334 316 286 275 270 251 245 235 213 216 200 205 256 262 195 171 247 249 209 212 214 223 225 213 217 212 212 210 199 207
328 329 328 328 328 327 326 323 323 322 319 318 316 317 322 324 324 324 323 324 329 331 323 306 253 210 217 246 240 238 240 237 236 238 226 219 212 208 214 217 215 205 221 251 228 217 237 265 281 248 248 287 311 285 229 14 335 308 356 306 279 273 266 248 238 224 201 203 180 168 284 262 217 219 247 246 219 210 211 219 220 217 220 209 216 217 210 215
329 330 329 330 331 330 329 326 325 323 321 318 315 316 319 319 320 321 319 320 324 322 308 282 221 202 215 266 238 232 239 241 241 248 233 228 224 220 224 226 223 213 219 252 245 199 215 217 202 243 273 280 279 296 287 304 254 271 251 249 276 286 267 248 233 205 187 181 150 142 276 262 225 218 241 250 215 200 216 225 220 218 222 212 214 218 219 216
332 331 331 333 334 334 333 331 328 327 323 319 315 314 316 316 315 316 315 314 317 313 290 241 201 192 205 258 252 236 235 238 240 241 234 218 198 214 227 218 220 220 222 237 240 213 205 194 206 257 280 245 264 354 311 259 198 257 264 245 250 275 270 263 232 180 175 171 150 153 242 263 259 224 233 245 203 187 211 220 221 221 225 223 215 218 221 215
331 331 333 335 336 337 336 334 333 330 326 320 315 313 315 313 309 309 307 303 306 292 258 210 196 188 271 259 251 244 230 234 233 219 221 197 177 203 207 189 192 199 206 220 221 210 184 170 197 254 266 198 310 315 290 270 237 217 247 259 229 227 262 280 229 170 173 174 166 164 218 255 269 256 241 237 186 180 209 216 218 223 227 230 223 219 224 222
328 330 332 336 338 338 336 335 335 332 326 321 316 315 314 309 304 302 295 287 285 246 198 192 200 203 293 268 219 242 221 218 213 204 211 193 186 204 175 163 176 182 190 205 198 181 169 174 216 252 258 218 192 227 260 279 261 213 199 243 240 236 262 268 248 185 170 128 185 200 220 249 256 256 340 158 171 177 209 222 220 222 227 231 228 221 223 226
324 327 331 336 338 338 336 335 336 333 327 324 322 320 314 305 295 290 282 262 241 203 191 224 217 203 253 247 227 245 180 184 195 197 208 199 190 181 159 163 182 178 168 177 176 173 180 185 159 111 231 223 214 213 240 262 259 238 211 236 241 238 257 255 282 236 181 142 195 214 233 252 252 247 261 152 183 189 211 228 234 232 234 237 233 224 222 223
322 325 330 334 336 337 335 335 336 333 329 328 328 326 315 301 283 271 248 209 191 181 213 268 265 218 232 222 221 165 133 167 183 190 203 200 193 184 186 207 188 174 175 188 193 182 182 186 174 220 250 222 211 202 206 229 238 247 240 256 262 246 250 255 276 212 187 187 210 212 231 248 256 261 261 246 220 214 222 231 245 247 247 246 241 233 228 221
320 324 329 332 334 334 333 335 335 334 333 331 334 334 315 295 271 239 195 174 153 168 230 218 189 212 247 192 174 117 119 153 169 189 194 191 192 190 211 239 198 193 205 199 194 182 173 178 181 223 247 222 207 205 213 228 240 259 266 270 272 272 266 262 275 186 180 199 218 217 230 243 251 255 257 255 237 230 235 238 244 248 250 250 243 239 233 227
319 325 330 331 332 332 331 333 333 335 338 337 344 345 319 303 286 241 188 198 215 234 265 214 187 221 263 163 133 130 136 157 177 191 181 176 171 166 202 223 199 216 227 208 190 179 169 183 197 221 236 228 213 215 224 235 244 256 266 269 266 272 273 268 275 209 183 198 219 221 232 243 251 253 252 257 254 247 246 246 248 249 250 251 244 240 236 234
319 325 330 331 332 331 331 334 335 337 339 345 355 348 346 14 304 304 333 243 235 237 255 244 211 228 244 159 147 158 139 183 211 180 175 175 160 155 182 190 191 215 219 220 217 114 175 204 217 228 238 241 233 234 239 243 246 251 255 266 269 263 266 272 278 202 185 204 233 237 245 250 255 261 259 256 256 255 252 251 254 253 255 257 249 243 239 232
316 323 331 332 332 331 332 337 336 336 343 356 357 334 19 25 314 322 323 272 249 235 243 246 234 241 241 205 181 171 124 223 223 176 169 174 173 183 181 174 198 214 195 204 223 230 221 226 231 237 246 255 254 252 254 259 260 263 267 270 272 268 273 279 278 180 182 196 241 251 257 259 259 262 260 254 250 251 251 250 252 253 258 261 254 248 239 214
308 318 329 333 332 330 334 337 337 347 354 355 347 324 343 347 350 57 237 272 273 245 239 235 231 235 234 232 196 175 195 224 228 195 172 173 185 199 192 185 208 223 197 197 212 219 225 227 232 240 249 253 255 248 244 267 266 251 253 260 265 259 263 277 246 201 205 211 241 266 268 262 262 263 259 252 249 248 251 252 253 252 254 256 255 251 230 200
301 310 322 332 330 331 335 335 346 21 351 332 325 322 322 306 317 8 273 266 264 231 222 222 222 224 223 225 186 185 218 219 219 201 176 174 170 175 208 206 210 228 220 214 219 228 238 231 215 234 239 237 245 245 233 254 259 240 226 232 252 251 246 253 245 210 220 231 238 293 288 262 240 248 254 252 247 244 245 248 253 253 250 253 257 252 222 193
293 297 312 327 327 332 337 334 2 8 337 328 314 321 322 292 275 9 359 271 259 232 223 217 209 222 216 199 175 180 230 220 214 184 173 178 167 154 205 207 210 231 226 228 233 239 247 233 188 205 222 219 228 239 221 218 257 259 215 216 238 250 252 259 275 321 309 269 209 168 286 270 207 222 247 250 225 230 234 235 244 251 252 252 253 244 216 191
287 289 300 313 320 334 340 338 354 338 324 317 331 325 317 285 262 341 46 278 263 222 128 189 175 200 193 169 160 137 4 247 225 128 165 183 184 167 209 187 204 237 221 228 243 245 244 201 176 200 217 218 224 244 219 202 258 272 227 218 240 253 259 261 276 294 263 267 230 144 280 285 253 230 247 243 204 217 226 225 234 245 252 252 248 229 203 192
281 283 289 294 311 332 342 331 332 333 321 324 336 327 313 294 271 279 34 288 269 157 116 208 211 185 164 150 153 132 298 244 77 101 161 185 192 172 228 202 196 227 197 212 259 236 186 159 161 198 216 222 227 246 222 195 239 267 263 283 259 261 261 251 251 236 237 288 272 165 150 278 279 252 219 214 202 218 229 224 234 242 246 255 257 230 192 192
276 276 278 280 294 312 315 303 315 329 315 314 322 317 315 309 271 286 18 269 271 105 113 231 352 44 71 344 202 154 253 265 115 2 25 12 200 168 228 223 220 216 170 177 236 258 133 178 199 196 199 222 226 238 210 185 216 247 57 54 75 75 320 88 206 242 287 317 273 184 152 242 276 262 185 190 194 211 224 220 230 240 239 247 257 239 190 192
271 273 272 269 277 289 292 289 288 290 298 308 311 312 321 304 267 1 231 252 269 84 120 158 91 353 84 0 261 205 12 24 136 301 29 283 236 221 238 238 251 248 217 204 230 266 79 185 216 186 187 223 216 129 44 176 210 220 124 77 76 84 37 78 213 247 347 284 252 191 161 213 274 268 189 185 202 209 220 221 226 236 239 242 248 231 190 189
264 266 267 263 263 271 280 273 261 276 301 310 309 317 323 284 259 168 232 247 355 55 99 98 105 146 137 146 235 224 215 64 68 111 158 219 203 264 292 291 289 272 268 257 259 263 174 124 347 200 193 200 132 86 33 44 166 180 134 74 51 223 49 79 221 105 44 269 250 193 181 196 269 276 168 181 202 196 205 219 222 233 244 246 241 219 190 186
262 258 258 255 247 241 258 258 242 267 309 317 321 330 310 275 161 221 230 239 2 190 141 168 183 141 162 186 201 196 199 202 127 149 189 209 171 186 261 254 148 313 300 285 274 257 219 170 191 248 179 125 103 88 26 28 58 112 115 93 350 297 19 37 281 107 197 264 250 180 184 192 232 266 128 192 198 186 195 203 206 220 236 241 234 219 194 178
264 257 251 249 243 233 232 231 217 263 305 321 344 349 235 232 230 235 232 71 37 201 154 177 185 168 192 209 214 169 173 194 167 172 191 168 177 198 208 207 161 137 267 242 241 241 237 229 204 193 341 154 141 124 23 0 333 144 135 125 107 285 315 326 246 163 218 258 244 174 180 200 236 248 237 239 205 188 202 202 201 210 221 232 227 215 189 163
265 259 248 243 238 230 227 232 241 267 298 329 353 282 214 228 236 230 209 193 226 172 111 157 175 179 191 206 218 169 171 204 163 179 203 169 196 219 214 226 209 226 258 217 221 220 255 265 189 155 302 189 167 181 212 243 192 176 161 149 166 209 251 248 243 235 239 259 261 180 175 219 265 246 206 224 220 195 201 209 210 204 209 227 220 194 164 151
266 260 248 240 236 231 226 229 240 256 293 351 325 213 194 230 245 224 181 214 239 242 56 79 158 182 197 210 192 152 183 229 159 170 198 169 200 229 212 223 222 235 269 229 262 202 240 290 185 164 214 181 180 206 210 167 165 193 175 157 188 195 217 240 237 243 259 278 271 180 170 213 259 185 192 207 218 205 196 208 215 209 218 229 187 149 147 153
270 259 247 235 229 226 220 219 228 233 202 89 189 203 209 229 247 310 244 232 242 239 245 44 161 191 219 230 195 170 207 230 166 166 196 190 204 217 203 204 205 211 199 205 258 184 229 272 195 162 169 164 180 220 207 123 102 215 152 153 228 204 196 244 261 249 267 310 270 215 217 235 244 259 223 209 220 216 205 211 209 211 231 222 159 156 169 166
268 257 242 224 219 220 214 213 214 195 152 116 164 210 225 238 255 292 290 305 267 239 205 286 220 206 237 227 194 210 223 237 182 170 204 218 226 227 208 186 192 199 192 191 228 189 230 280 164 123 12 147 174 262 195 146 216 196 142 190 230 163 165 221 276 276 268 279 270 243 248 271 297 278 239 208 218 218 209 214 205 207 229 222 188 189 192 181
263 250 231 219 220 216 211 210 196 167 138 119 179 214 233 251 280 299 325 344 315 295 211 231 212 188 235 243 211 202 192 200 188 174 191 210 225 222 213 211 190 194 202 203 223 231 227 266 249 163 309 250 267 324 325 335 118 132 178 221 244 33 106 175 255 306 272 262 272 264 263 276 287 280 233 189 206 211 207 209 202 208 225 225 211 211 208 192
260 231 228 232 225 213 206 201 179 150 125 137 206 238 253 254 272 297 334 350 330 313 274 247 214 184 226 254 247 191 170 191 183 174 206 212 216 198 192 214 196 191 207 209 223 258 218 247 267 186 229 285 352 16 302 339 82 141 215 271 93 107 226 170 174 231 246 256 275 278 278 273 256 264 277 207 203 204 206 204 199 209 221 225 220 223 216 191
246 203 260 240 219 206 196 185 162 134 128 170 209 237 249 254 262 280 304 317 316 306 283 277 276 245 251 267 277 227 178 198 193 180 206 206 224 199 175 197 206 197 206 201 209 244 201 224 252 342 343 316 8 148 179 246 337 110 342 339 92 167 181 180 189 193 218 247 274 284 286 278 251 251 249 216 197 194 199 199 199 208 218 221 219 221 212 184
193 217 297 192 191 188 178 165 144 125 162 180 210 224 230 253 258 260 277 294 307 304 294 311 329 316 298 312 314 301 215 212 215 212 214 195 226 232 179 185 204 204 207 200 206 223 182 223 236 321 355 306 255 200 175 184 208 195 231 252 216 187 156 221 252 215 204 229 247 273 279 273 263 218 212 191 184 191 190 193 204 211 218 219 213 212 205 192
182 259 224 157 169 168 157 147 143 157 173 206 222 226 232 246 252 244 242 195 187 221 213 257 277 282 292 307 311 309 301 283 271 245 235 215 228 252 189 195 208 190 186 196 206 207 173 212 224 205 204 242 243 217 194 201 203 193 201 211 207 197 185 227 249 227 200 223 227 237 266 268 268 87 135 162 174 189 184 191 209 218 225 225 211 208 205 204
213 261 164 161 167 159 148 160 200 166 188 217 217 223 221 227 246 248 242 228 229 229 203 239 242 242 248 244 251 267 272 287 291 279 285 279 249 270 348 278 242 134 126 194 224 216 153 148 236 232 218 243 260 254 225 237 240 235 227 211 207 197 190 216 233 230 214 218 229 233 255 264 271 84 87 162 181 195 189 187 198 215 225 220 210 219 218 217
224 249 155 167 170 163 159 209 192 189 220 217 235 237 211 214 237 246 243 231 223 214 206 232 234 231 234 228 232 243 243 247 251 251 269 285 273 286 331 344 350 14 212 285 311 323 70 106 237 253 262 281 289 314 347 356 14 275 266 221 207 204 209 225 229 231 229 218 233 244 247 259 277 85 95 118 130 189 189 172 180 203 217 212 214 223 222 222
244 276 158 176 179 176 186 215 193 217 228 230 248 233 222 233 233 235 241 225 205 198 216 227 228 227 229 226 229 233 231 230 231 235 248 261 261 269 289 312 333 315 244 217 105 250 254 206 212 251 271 279 275 273 292 335 22 249 251 232 228 227 232 249 261 254 245 234 238 246 250 261 266 129 141 155 155 198 225 205 202 212 225 229 227 224 220 223
259 259 212 189 191 193 208 208 209 226 219 223 235 226 225 236 223 227 236 230 214 210 222 231 224 222 222 224 235 235 228 229 235 235 237 247 258 267 268 272 275 258 213 130 139 180 213 205 194 230 245 241 246 249 249 261 76 240 251 245 244 239 233 247 259 247 243 237 238 245 257 263 264 255 232 223 221 234 242 236 222 225 238 236 226 228 227 226
260 238 222 189 203 218 231 214 224 233 218 219 228 221 223 230 226 225 229 232 227 222 227 233 205 218 222 221 237 245 238 235 234 233 238 237 244 254 249 249 254 247 196 102 86 120 141 207 220 232 240 237 243 252 256 260 242 226 231 230 232 237 235 237 244 246 250 250 245 247 255 262 268 273 271 265 259 262 266 261 246 242 251 242 222 229 234 232
263 248 227 196 214 233 240 237 238 237 227 223 215 200 218 227 235 229 218 221 227 224 230 232 209 217 222 218 231 242 238 235 229 229 242 244 244 248 232 226 240 221 160 127 158 149 136 221 234 242 249 247 250 258 263 268 266 260 258 250 238 232 228 228 234 240 247 255 254 250 256 263 264 266 269 269 265 265 270 272 269 262 263 261 241 231 237 239
263 256 240 293 261 215 225 241 243 245 247 241 228 218 226 228 228 226 217 222 225 213 211 223 217 223 230 226 228 236 235 237 230 227 237 241 243 250 244 232 229 197 176 199 211 150 173 230 231 241 252 254 258 261 259 263 266 266 269 270 264 253 237 231 238 239 239 249 259 261 260 261 260 258 263 269 271 270 270 274 278 277 274 271 253 234 243 242
281 275 293 330 306 252 275 282 267 261 259 258 253 241 241 240 233 226 217 223 230 207 202 225 223 220 228 230 229 233 228 229 232 228 227 230 231 237 240 236 231 190 178 200 185 155 197 225 223 235 247 249 252 255 253 254 260 262 262 261 264 268 263 254 251 248 246 250 256 256 255 257 262 263 263 268 276 282 283 280 281 281 278 273 260 251 259 256
282 301 320 332 310 294 300 295 288 278 262 260 261 250 252 256 252 246 232 226 236 214 202 225 230 223 227 230 229 234 229 229 239 236 229 228 223 220 227 226 223 200 182 191 192 198 214 214 214 228 245 243 241 244 243 241 245 250 253 254 255 261 262 259 257 256 254 253 252 253 255 260 263 263 264 271 278 282 281 277 276 275 274 272 267 262 266 269
287 312 318 311 299 292 284 272 260 260 250 239 244 250 255 257 258 265 261 244 246 247 227 231 237 235 234 233 231 235 233 232 239 240 238 238 229 217 222 215 206 205 190 189 190 186 204 216 211 219 239 235 230 237 239 237 240 245 250 255 252 247 247 249 251 251 250 252 255 255 255 256 257 262 270 274 271 269 269 270 271 269 268 269 268 263 265 269
292 308 304 282 276 267 268 276 266 257 253 241 243 250 255 261 267 274 278 262 247 253 255 252 252 251 247 243 240 240 240 240 244 246 245 249 247 236 234 218 205 201 184 186 192 175 191 211 209 213 237 237 226 233 237 236 240 240 236 239 241 241 243 246 251 251 247 245 248 250 248 249 255 264 270 269 265 261 259 260 263 267 272 275 270 254 248 257
Height
825 824 824 823 823 822 821 821 820 819 818 818 817 816 815 814 813 812 811 810 810 808 808 807 806 806 805 805 805 804 804 804 803 802 801 799 798 798 798 799 799 799 800 800 801 802 801 802 802 801 802 803 803 802 803 802 802 808 814 820 820 813 805 796 791 791 792 792 791 791 789 791 793 791 789 790 792 793 793 792 790 790 789 791 793 795 796 798
825 825 824 824 823 822 822 821 820 819 819 818 817 816 815 815 814 812 812 810 809 808 808 807 806 806 805 805 804 804 803 802 802 800 798 797 797 798 798 798 799 799 799 800 800 801 801 801 799 800 802 804 802 802 804 802 804 810 812 815 813 803 794 787 786 786 788 790 789 788 788 790 790 789 790 792 794 792 794 793 790 791 790 791 793 794 796 797
825 825 824 824 823 822 822 821 820 820 819 818 817 816 815 815 814 813 812 811 809 808 807 806 806 805 805 805 803 804 802 802 802 797 793 794 795 796 797 798 798 798 799 799 800 800 800 798 798 799 802 805 802 802 806 804 805 806 809 815 807 794 790 784 783 784 785 788 789 788 786 788 787 785 790 792 792 791 791 790 790 791 788 789 792 792 794 796
825 825 824 823 823 822 821 821 820 819 819 818 817 816 816 814 814 813 811 810 809 808 807 806 806 805 805 804 804 804 802 804 801 792 790 792 793 794 795 796 797 798 798 799 799 799 799 798 797 798 802 806 801 800 805 804 803 802 805 810 799 789 792 786 783 784 785 787 790 789 787 789 786 784 788 790 793 791 785 782 782 784 782 784 788 790 792 794
826 825 824 823 823 822 821 820 820 819 818 817 817 816 815 814 813 812 811 810 809 808 807 806 805 804 804 804 804 802 804 810 799 788 791 791 792 793 794 796 796 797 797 798 798 798 798 797 797 798 803 806 802 801 802 798 798 802 800 798 792 789 792 787 784 786 786 788 791 790 790 788 784 784 786 788 792 785 777 775 773 774 774 777 782 786 788 791
826 825 824 823 822 822 821 820 819 818 818 817 816 815 814 814 813 812 811 810 809 808 806 806 804 804 804 803 804 803 807 810 794 788 792 790 792 793 794 795 796 797 797 798 798 798 798 797 799 803 804 805 803 801 798 792 795 803 799 792 789 787 788 785 785 788 788 790 791 791 788 784 785 786 783 785 783 774 769 769 768 768 769 770 775 780 784 786
825 825 824 823 822 821 820 820 819 818 817 816 815 814 814 813 812 812 810 810 808 807 806 805 804 803 803 803 804 803 806 802 790 790 792 790 793 792 794 795 795 797 796 797 798 798 798 798 801 802 803 804 801 797 792 791 795 802 799 792 788 785 785 784 784 788 788 790 789 787 787 786 788 786 782 779 774 769 768 767 766 767 766 767 771 776 778 779
825 824 823 823 822 821 820 819 818 817 816 815 815 814 813 812 811 811 810 809 807 806 805 804 803 803 803 803 804 805 804 797 789 791 791 791 792 792 794 794 795 796 796 797 797 796 797 799 800 799 803 802 797 795 792 794 798 799 798 791 787 786 784 782 784 787 788 788 786 786 789 788 785 784 781 774 768 767 766 766 766 766 766 768 771 773 775 776
824 824 823 822 821 820 820 819 818 817 816 815 814 813 812 811 810 809 809 808 807 806 804 803 803 802 803 802 804 807 801 791 790 790 790 791 792 792 793 793 795 795 795 797 795 796 798 798 798 797 802 800 795 796 794 798 800 795 793 790 787 786 783 782 783 785 787 786 786 788 789 786 782 784 779 766 764 764 763 765 764 765 767 767 769 770 772 773
824 822 822 821 820 820 819 818 817 816 815 814 813 812 811 810 809 808 808 807 806 805 803 803 802 802 803 801 806 809 796 788 790 790 790 791 791 792 793 793 794 794 795 795 794 795 795 796 795 794 799 798 796 796 794 798 797 791 791 791 790 788 784 782 782 782 784 784 784 787 788 783 780 786 778 760 758 761 761 764 762 764 766 765 767 767 768 769
823 822 821 820 819 819 817 817 816 815 814 813 812 811 810 809 808 807 806 806 805 804 803 802 801 802 802 802 807 804 791 789 790 788 790 790 790 792 792 793 793 794 794 793 793 793 793 794 792 794 799 798 797 795 792 792 792 790 792 793 791 788 784 781 781 780 781 783 782 784 787 783 783 786 773 757 757 757 759 762 761 763 763 763 764 763 765 765
822 821 820 819 819 817 816 815 814 814 813 811 811 810 809 808 807 806 805 805 804 803 802 801 801 801 801 802 802 796 789 789 789 788 790 789 790 791 791 792 792 793 793 792 792 791 792 792 792 797 798 796 798 797 794 791 791 791 793 798 793 787 784 779 777 777 779 782 778 783 791 785 782 778 762 753 757 757 759 760 759 760 759 760 761 761 762 760
822 821 820 819 818 816 815 814 813 812 811 810 809 808 808 807 806 805 804 803 803 802 801 800 800 800 802 802 793 788 788 788 788 788 788 789 790 790 790 791 791 792 792 792 792 790 792 792 792 796 794 795 798 796 793 790 792 793 794 798 796 793 787 773 769 772 777 780 775 784 794 781 769 766 756 751 755 758 760 759 757 757 756 757 758 758 758 757
822 821 820 818 817 816 814 813 812 810 809 808 806 806 806 805 805 803 802 802 801 801 800 800 801 800 803 798 787 786 787 786 787 787 787 789 789 790 790 790 791 791 791 791 791 791 791 791 792 794 793 795 795 793 794 793 793 795 795 795 796 802 790 767 764 768 776 781 774 784 797 778 760 758 754 748 751 756 758 757 756 756 754 754 754 755 754 753
821 820 819 818 817 815 814 812 811 809 808 806 804 804 803 803 802 801 801 800 799 800 799 800 800 800 802 794 785 786 786 785 786 786 786 788 788 789 789 790 790 790 791 791 791 791 791 792 793 795 794 792 793 797 800 798 793 793 802 802 795 800 790 768 763 764 772 780 776 784 795 780 760 753 749 745 748 752 755 755 755 754 753 752 751 751 751 749
820 820 819 817 816 815 813 811 810 808 806 804 802 802 801 801 800 799 799 798 799 799 798 800 799 800 802 794 785 785 785 784 785 785 786 786 788 788 788 790 790 790 791 790 790 791 791 792 793 795 795 794 797 801 804 805 799 791 798 803 794 794 788 773 768 764 767 778 779 780 782 773 759 751 748 745 747 751 754 753 752 751 750 748 747 747 747 746
819 819 818 817 816 814 812 811 809 807 805 802 801 799 799 798 797 797 797 797 798 797 797 798 796 799 798 789 786 784 782 782 783 784 785 785 787 787 788 789 789 790 790 790 791 791 791 793 794 794 794 795 796 799 810 816 808 794 791 794 790 786 784 778 774 768 767 774 779 779 777 768 757 751 749 748 749 751 752 752 749 747 746 743 742 742 742 742
819 818 817 816 815 813 812 810 808 806 803 801 799 797 796 795 794 794 795 795 796 798 799 797 797 805 799 786 784 782 779 781 782 782 784 784 786 787 787 788 788 789 791 792 791 791 793 792 793 797 796 796 796 800 812 810 798 792 787 788 785 779 779 776 770 768 769 773 776 780 780 770 759 753 751 748 749 750 749 748 745 742 741 739 738 738 737 737
818 817 816 816 814 813 811 809 808 805 803 800 798 796 793 792 793 793 794 795 796 797 797 794 794 800 793 780 778 779 778 780 781 782 783 783 785 786 787 787 787 789 793 795 793 790 792 793 797 802 799 794 792 792 796 790 783 783 781 782 783 779 777 769 763 764 767 773 776 776 774 767 760 755 750 746 745 746 745 743 741 739 737 734 733 733 731 731
817 817 816 815 814 812 810 809 807 805 803 799 797 795 793 794 794 792 793 792 789 786 784 783 783 783 779 774 776 778 779 780 780 781 781 782 784 786 787 787 788 791 793 794 794 788 789 799 802 798 790 784 782 780 779 777 776 777 777 778 779 779 777 765 760 762 762 771 772 766 765 761 754 750 746 743 741 741 741 739 737 735 732 729 728 727 725 725
817 816 815 814 813 811 810 808 807 805 804 801 800 798 798 800 800 798 797 790 782 778 777 775 776 775 773 772 774 775 777 779 779 779 780 781 783 786 787 787 792 796 792 789 790 786 789 799 796 784 776 774 774 772 771 772 772 773 775 778 778 778 774 762 759 762 761 768 768 760 762 759 751 747 742 740 740 738 736 735 732 729 726 723 722 721 719 719
817 816 815 814 812 811 809 808 806 805 804 802 802 802 802 804 805 804 804 795 780 775 775 773 772 772 769 769 770 771 775 778 778 777 778 780 782 785 784 785 791 791 787 787 791 793 796 795 784 773 770 771 771 768 769 770 771 773 774 779 782 777 771 762 761 765 764 769 769 762 763 759 749 744 739 737 736 732 728 727 725 723 722 719 716 715 714 716
816 815 815 814 812 811 809 807 806 804 804 803 803 803 803 804 804 804 807 801 784 773 772 770 770 770 768 768 767 769 774 774 774 773 774 777 780 781 781 783 786 785 784 786 789 795 796 786 774 770 770 771 771 768 770 772 773 775 777 783 783 775 774 772 767 769 768 768 767 764 765 761 752 744 737 732 728 726 723 720 718 718 717 714 709 709 710 712
815 815 815 813 812 811 808 807 805 804 805 804 804 804 803 803 803 804 804 797 781 768 764 762 763 764 763 764 763 767 769 766 766 767 767 771 775 778 778 777 781 783 780 778 779 782 779 770 766 766 766 768 771 770 771 776 777 773 775 780 778 770 771 770 764 765 767 765 765 768 769 757 748 745 734 725 722 721 720 718 716 714 711 708 705 705 707 707
814 815 814 813 813 810 808 807 805 806 805 804 805 803 803 803 802 802 802 795 777 764 760 758 758 757 755 758 760 761 764 762 759 760 760 763 768 773 774 771 776 780 776 772 773 772 767 762 762 766 767 766 770 772 771 775 777 775 770 768 767 765 765 764 762 766 772 773 767 770 770 746 728 733 730 720 720 719 717 716 715 711 706 704 703 702 703 704
813 814 813 813 812 810 809 806 806 807 803 804 805 803 804 803 802 802 802 799 780 763 763 761 757 754 752 756 757 759 767 764 756 756 758 761 761 765 770 769 768 771 769 768 769 763 759 759 759 764 768 767 772 774 769 770 778 778 768 760 761 763 765 766 766 772 779 775 765 766 772 753 726 725 725 717 717 715 714 715 712 709 704 699 698 698 699 702
812 813 813 813 812 811 810 807 808 806 804 806 804 804 804 801 804 801 800 804 780 755 761 762 756 754 752 754 754 760 770 763 756 759 758 761 760 760 768 767 765 766 762 766 772 760 753 761 763 764 768 770 775 774 766 768 778 776 767 764 764 764 767 768 770 777 776 771 767 763 771 769 741 721 716 712 716 717 713 714 710 705 702 696 692 692 695 698
810 811 811 812 812 812 812 810 809 806 806 806 803 805 803 801 805 800 805 813 775 744 755 759 755 754 753 756 754 756 764 758 758 764 760 761 763 762 766 763 761 763 758 767 776 760 751 761 763 762 771 773 770 767 761 764 772 770 768 768 767 768 770 770 772 777 775 775 777 765 768 776 744 713 710 709 714 718 711 710 706 700 698 694 690 689 691 694
808 809 809 811 811 811 812 810 809 807 806 805 805 805 802 804 804 799 814 810 760 739 753 754 755 757 755 760 758 755 760 759 761 765 763 764 764 764 767 763 760 762 759 761 766 758 757 764 762 760 769 768 762 765 766 764 766 768 770 768 768 771 770 773 776 778 781 781 776 765 767 774 742 706 710 715 713 715 708 703 700 695 693 690 688 688 690 692
806 806 807 809 810 810 810 809 808 807 806 805 805 804 803 805 803 807 819 795 752 746 756 755 756 757 758 764 763 758 759 762 764 766 766 765 764 765 766 763 763 765 764 762 761 758 760 766 766 761 761 760 762 771 774 771 768 770 771 770 772 774 773 778 776 777 788 777 759 756 759 768 748 706 702 709 702 702 701 698 697 692 690 687 685 686 687 689
803 804 805 806 807 808 808 808 807 805 806 805 804 804 805 804 805 811 801 769 751 754 756 757 757 754 758 761 758 759 761 762 764 766 768 767 767 769 768 766 768 773 774 772 766 760 762 768 765 758 756 760 764 770 774 776 773 771 772 772 776 777 777 783 782 785 794 768 740 741 747 760 750 708 693 695 688 688 692 692 693 689 686 683 681 681 682 686
800 801 802 803 804 806 807 807 805 806 806 805 805 805 805 808 807 796 775 756 755 754 748 752 754 753 756 754 753 757 760 760 762 764 765 768 771 770 769 767 767 774 776 774 768 763 762 760 756 757 759 759 761 768 775 777 775 773 774 777 784 785 783 787 787 787 787 760 732 734 744 748 729 700 693 691 684 686 685 684 685 682 681 679 676 677 678 683
797 798 799 799 800 803 805 805 805 806 805 805 807 805 807 814 796 768 761 759 753 746 741 743 747 749 752 754 754 754 757 757 759 761 760 764 769 767 765 762 760 763 763 764 767 766 761 751 751 761 759 753 755 762 768 768 771 774 771 775 783 785 786 787 781 774 767 750 733 735 745 738 713 695 691 686 681 681 678 678 678 675 675 673 671 674 677 681
794 795 795 795 797 799 802 804 804 805 806 806 807 807 812 810 777 751 757 758 746 741 742 743 746 749 751 752 750 748 755 756 753 759 760 762 770 768 763 761 758 757 758 762 763 763 764 752 745 752 747 744 748 746 745 749 761 767 758 762 769 768 772 773 765 759 753 744 736 741 743 728 708 691 679 675 674 673 673 673 672 671 670 670 671 675 678 681
791 791 792 792 794 796 798 801 802 804 807 806 808 811 807 792 768 758 759 752 744 742 744 746 748 753 753 751 748 743 747 751 750 756 760 760 763 760 755 754 755 755 759 767 759 753 760 745 731 738 738 739 743 736 734 742 756 760 752 758 763 753 753 756 751 746 750 753 743 738 731 708 691 679 670 673 672 669 672 669 669 671 667 669 674 675 678 681
788 788 790 789 790 792 795 798 799 803 805 806 813 813 795 773 762 761 755 747 746 743 747 752 751 755 757 751 750 747 743 747 751 755 758 757 754 749 746 744 746 748 750 757 751 746 754 743 733 742 742 742 747 741 738 742 748 754 756 757 751 742 743 753 754 744 751 761 738 720 718 700 687 676 663 669 673 669 673 670 669 670 665 667 672 672 676 678
785 786 787 785 785 788 791 794 797 801 804 808 814 807 787 770 761 757 751 748 747 741 747 757 752 752 755 750 748 749 747 748 750 754 756 754 746 738 739 735 733 737 737 739 740 736 741 740 737 744 745 747 752 748 744 744 744 750 756 750 741 742 745 750 760 755 757 761 732 710 713 706 699 685 661 666 674 670 670 668 668 667 664 666 669 669 672 673
782 784 783 779 779 783 787 792 794 799 805 810 812 800 784 773 764 758 756 755 754 748 751 756 749 744 748 749 744 743 749 749 748 753 751 746 736 724 728 730 725 726 726 729 736 732 733 739 742 748 751 749 750 748 746 747 746 747 750 746 744 751 751 750 760 761 759 759 734 712 710 701 692 681 666 669 674 668 666 665 666 666 663 666 667 666 668 670
782 783 779 772 774 780 784 789 792 797 804 808 809 799 785 775 767 764 763 762 761 758 755 753 748 744 743 744 741 739 746 746 744 749 746 740 732 717 716 721 720 721 720 724 732 729 730 738 741 751 758 753 749 749 748 747 750 752 753 751 748 748 748 746 749 747 746 750 737 723 712 688 670 663 659 663 665 662 663 663 663 663 661 663 664 663 666 668
781 782 777 771 773 778 783 788 792 798 802 802 799 791 781 774 770 766 765 764 765 764 762 759 759 757 751 750 748 741 742 740 737 742 740 732 727 718 712 713 715 718 716 719 726 726 732 737 737 750 761 754 744 743 741 737 740 749 754 754 750 747 745 745 742 733 733 739 738 735 719 679 653 651 649 654 660 658 660 661 662 660 658 659 660 661 664 665
780 780 775 772 774 777 783 790 792 795 800 797 790 783 778 773 769 765 763 764 765 764 763 764 766 769 767 767 764 753 749 747 739 738 734 727 725 722 715 709 710 715 718 723 726 726 732 734 733 742 750 743 732 728 728 722 721 730 737 737 738 740 742 747 743 728 725 729 725 730 721 675 646 648 647 651 658 655 655 659 660 660 658 658 658 659 661 662
779 776 772 772 773 774 781 787 787 790 793 786 777 774 774 771 767 765 762 763 765 762 762 762 761 763 765 768 767 762 762 761 753 746 737 728 725 722 716 710 710 713 718 725 725 720 724 730 733 734 731 727 723 724 725 721 717 721 724 722 725 730 732 736 735 723 721 724 716 722 718 674 644 649 650 652 655 652 652 654 656 659 658 657 659 658 659 660
776 773 771 771 771 771 775 779 780 783 781 772 766 767 769 768 765 762 760 761 763 761 761 759 756 754 754 755 757 758 760 759 755 750 744 736 729 724 720 717 716 716 717 722 722 721 724 731 735 734 727 721 721 724 728 728 727 725 723 720 720 722 721 720 719 714 713 716 714 719 713 677 650 650 650 651 654 653 653 653 654 656 656 656 658 657 657 658
773 771 771 771 770 769 769 768 771 775 774 769 768 768 765 763 761 759 757 756 756 757 756 752 749 747 746 746 748 749 750 750 746 742 742 740 731 723 721 721 722 722 720 723 724 725 729 731 733 739 741 736 732 729 727 728 732 729 722 719 717 716 717 716 715 715 714 711 708 706 699 676 657 652 650 650 652 653 654 653 653 654 655 656 656 655 656 655
774 771 768 768 768 765 760 756 757 761 765 768 768 766 764 760 755 752 750 748 748 750 749 745 743 742 742 744 745 743 741 743 743 740 740 741 733 724 721 721 724 723 721 725 725 724 729 729 728 739 747 746 743 734 724 723 729 730 723 719 717 716 718 718 718 720 718 709 700 696 690 674 658 654 654 653 653 654 654 653 653 653 653 654 654 655 654 652
774 769 764 765 765 761 755 750 749 750 753 759 761 760 760 756 747 742 743 743 743 742 740 740 741 743 743 743 744 742 738 738 741 741 740 739 733 725 721 720 723 722 721 726 726 724 729 728 724 728 731 731 730 724 717 718 723 725 721 718 718 717 715 718 721 720 714 706 698 692 687 679 668 662 657 653 653 654 651 650 652 652 652 653 654 654 651 649
773 765 759 761 762 760 756 753 750 748 745 746 746 745 747 748 744 740 738 737 736 736 737 739 740 741 740 740 741 739 735 735 737 739 737 734 728 722 720 720 723 722 721 724 725 724 729 730 725 725 723 719 717 714 711 713 713 714 714 714 716 716 714 717 719 713 708 706 698 688 685 682 676 667 656 647 647 651 650 647 648 648 649 649 650 650 647 646
771 763 755 756 758 755 753 751 749 748 746 743 737 732 733 737 740 739 735 730 729 732 737 737 735 733 731 732 734 732 731 733 735 734 731 728 723 721 721 720 720 719 719 722 724 723 725 726 725 726 725 720 717 714 711 710 708 707 709 709 709 710 713 716 712 704 702 700 693 688 685 678 669 663 655 643 641 646 648 644 642 642 643 643 645 646 643 643
771 764 757 757 757 753 750 749 749 748 748 747 741 734 731 729 728 728 727 727 727 728 731 731 728 726 724 723 725 726 726 728 727 723 720 718 717 719 721 718 716 718 718 719 723 723 722 723 723 726 728 725 722 718 715 713 711 709 709 708 705 705 707 707 702 695 694 693 687 684 681 672 663 659 652 642 639 642 643 641 639 638 636 636 640 642 639 639
772 769 765 764 762 758 753 752 752 752 750 749 745 739 735 731 727 722 721 722 723 722 723 722 718 717 717 717 719 719 717 715 714 709 706 710 714 715 715 710 710 717 719 716 719 723 722 720 719 725 730 726 720 717 715 715 713 708 705 704 705 705 701 697 692 689 690 689 683 681 681 674 662 652 647 645 644 643 641 638 636 634 631 630 634 635 634 634
772 770 771 772 767 760 755 750 751 752 750 748 744 738 734 733 729 725 721 718 718 719 719 717 714 712 712 712 713 712 708 705 703 698 696 701 705 705 705 702 701 710 719 717 716 722 725 720 718 725 727 717 710 711 709 708 711 711 708 705 701 697 691 686 683 681 683 682 679 680 681 672 655 646 647 648 645 643 640 634 630 629 626 625 628 631 632 631
772 771 772 773 768 760 755 752 750 749 744 741 738 734 732 730 728 729 727 718 714 717 718 716 716 714 713 711 709 706 702 699 695 692 691 692 691 693 698 700 697 702 713 717 717 721 723 719 717 720 716 706 700 700 701 706 711 709 702 693 683 680 681 679 676 671 669 670 672 671 664 653 646 647 648 644 638 636 632 627 625 624 621 619 623 627 628 626